This demonstration page uses our WeatherBlox Daily Observations layout. Learn more.

41.55636, -103.73856

Hourly Observations for July 17, 2016

Temp ( °F °C ) Dew Point ( °F °C ) Humidity (%) Winds ( mph kmh ) Pressure ( in mb ) Visibility ( mi km ) Precip ( " mm )
12:53 am 00:53 Clear 66 18.9 57 13.9 73 73 NNE 22 35 29.78 1009 10 16.0934 0 0
1:53 am 01:53 Clear 64 17.8 57 13.9 78 78 N 9 15 29.81 1009 10 16.0934 0 0
2:53 am 02:53 Clear 63 17.2 57 13.9 81 81 WNW 8 13 29.83 1010 10 16.0934 0 0
3:53 am 03:53 Clear 61 16.1 56 13.3 84 84 WNW 7 11 29.88 1012 10 16.0934 0 0
4:53 am 04:53 Clear 60 15.6 55 12.8 84 84 WNW 5 7 29.9 1013 10 16.0934 0 0
5:53 am 05:53 Sunny 59 15 55 12.8 87 87 WNW 5 7 29.93 1013 10 16.0934 0 0
6:53 am 06:53 Sunny 62 16.7 56 13.3 80 80 W 5 7 29.94 1014 10 16.0934 0 0
7:53 am 07:53 Sunny 64 17.8 56 13.3 75 75 undefined N/A 29.96 1014 10 16.0934 0 0
8:53 am 08:53 Sunny 65 18.3 55 12.8 70 70 undefined N/A 29.97 1015 10 16.0934 0 0
9:53 am 09:53 Sunny 67 19.4 56 13.3 68 68 SSW 7 11 29.98 1015 10 16.0934 0 0
10:53 am 10:53 Partly Cloudy 69 20.6 57 13.9 66 66 VRB 6 9 29.97 1015 10 16.0934 0 0
11:53 am 11:53 Partly Cloudy 70 21.1 56 13.3 61 61 SE 7 11 29.99 1016 10 16.0934 0 0
12:53 pm 12:53 Sunny 74 23.3 56 13.3 54 54 VRB 3 6 29.99 1016 10 16.0934 0 0.0254
1:53 pm 13:53 Sunny 78 25.6 55 12.8 45 45 E 14 22 29.96 1015 10 16.0934 0 0
2:53 pm 14:53 Sunny 80 26.7 56 13.3 44 44 E 9 15 29.95 1014 10 16.0934 0 0
3:53 pm 15:53 Sunny 79 26.1 56 13.3 45 45 ESE 9 15 29.96 1015 10 16.0934 0 0
4:39 pm 16:39 Mostly Cloudy with Nearby Thunderstorms 77 25 57 13.9 50 50 E 5 7 29.88 1012 10 16.0934 0 0.0254
4:53 pm 16:53 Cloudy with Nearby Thunderstorms 74 23.3 59 15 60 60 SSE 16 26 30 1016 9 14.48406 0 0.0254
5:20 pm 17:20 Mostly Cloudy 73 23 57 14 57 57 SSE 18 30 29.91 1013 10 16.0934 0 0
5:53 pm 17:53 Mostly Cloudy with Light Rain 73 22.8 59 15 62 62 SSE 17 28 29.96 1015 10 16.0934 0 0.0254
6:53 pm 18:53 Partly Cloudy 74 23.3 55 12.8 52 52 ESE 15 24 29.95 1014 10 16.0934 0 0.0254
7:53 pm 19:53 Mostly Cloudy 72 22.2 58 14.4 61 61 ESE 10 17 29.94 1014 10 16.0934 0 0
8:53 pm 20:53 Cloudy 68 20 60 15.6 76 76 Calm 29.97 1015 10 16.0934 0 0
9:53 pm 21:53 Mostly Cloudy 69 20.6 58 14.4 68 68 NE 10 17 30.02 1017 10 16.0934 0 0
10:24 pm 22:24 Mostly Clear with Nearby Thunderstorms 70 21 59 15 69 69 ENE 12 19 29.94 1014 10 16.0934 0 0
10:39 pm 22:39 Mostly Cloudy 69 20.6 59 15 70 70 S 8 13 29.97 1015 10 16.0934 0 0
10:53 pm 22:53 Mostly Cloudy with Nearby Thunderstorms 69 20.6 59 15 70 70 SE 8 13 30.08 1019 10 16.0934 0 0
11:11 pm 23:11 Mostly Cloudy 68 20 59 15 73 73 SE 5 7 30 1016 10 16.0934 0 0
11:53 pm 23:53 Mostly Cloudy 68 20 61 16.1 78 78 E 14 22 30.07 1018 10 16.0934 0 0.0254

Powered by AerisWeather